Simultaneous Nadir Overpasses (SNOs) Predictions

Prediction of SNOs between METOP-C and LANDSAT-8 Satellite Orbit:

Table of predicted SNOs for the next 14.0 days since TLE Epoch: 3/2/2024
Index Date (METOP-C) Time (METOP-C) Lat,Lon (METOP-C) SZA (METOP-C ) Date (LANDSAT-8) Time (LANDSAT-8) Lat,Lon (LANDSAT-8) SZA (LANDSAT-8 ) Distance(km) Time Diff (sec)
1 03/04/2024 21:55:52 81.13,-109.47 88.80 03/04/2024 21:56:34 81.13,-109.46 88.82 0.28 42
2 03/04/2024 22:46:32 -81.15, 58.54 91.13 03/04/2024 22:46:00 -81.15, 58.43 91.16 2.02 32
3 03/07/2024 17:30:14 81.12, -43.30 87.70 03/07/2024 17:30:45 81.12, -43.12 87.73 3.05 31
4 03/07/2024 18:20:53 -81.16, 125.12 92.19 03/07/2024 18:20:10 -81.17, 125.15 92.20 0.80 43
5 03/10/2024 13:04:35 81.14, 23.57 86.68 03/10/2024 13:04:56 81.13, 23.39 86.66 3.18 21
6 03/10/2024 13:55:16 -81.15,-168.74 93.30 03/10/2024 13:54:22 -81.15,-168.68 93.32 1.06 54
7 03/13/2024 08:38:57 81.14, 90.00 85.59 03/13/2024 08:39:06 81.14, 90.09 85.61 1.65 9
8 03/13/2024 09:29:37 -81.16,-101.92 94.33 03/13/2024 09:28:32 -81.16,-101.97 94.36 0.90 65



Historial Predications of SNOs between METOP-C and LANDSAT-8
